Weather History for KIPT - May, 2013

Change the Weather History Date:

Wednesday, May 15, 2013

  Actual Average Record
Temperature  
Mean Temperature 62 °F 59 °F  
Max Temperature 75 °F 71 °F 94 °F (1962)
Min Temperature 49 °F 47 °F 32 °F (1936)
Degree Days  
Heating Degree Days 3 7  
Month to date heating degree days 122 126  
Since 1 July heating degree days 5595 5881  
Cooling Degree Days 0 1  
Month to date cooling degree days 0 10  
Year to date cooling degree days 8 15  
Growing Degree Days 12 (Base 50)    
Moisture  
Dew Point 47 °F    
Average Humidity 71    
Maximum Humidity 93    
Minimum Humidity 49    
Precipitation  
Precipitation T in 0.11 in 1.38 in (1930)
Month to date precipitation 1.73 1.71  
Year to date precipitation 11.08 12.96  
Snow  
Snow 0.00 in 0.00 in 0.00 in (2002)
Month to date snowfall 0.0 0.0  
Since 1 July snowfall 32.7 36.0  
Snow Depth 0.00 in    
Sea Level Pressure  
Sea Level Pressure 29.81 in    
Wind  
Wind Speed 6 mph (ESE)    
Max Wind Speed 16 mph    
Max Gust Speed 29 mph    
Visibility 10 miles    
Events Rain    
T = Trace of Precipitation, MM = Missing Value Source: NWS Daily Summary

Daily Weather History Graph

Daily Weather History Graph

Search for Another Location

Airport or City:

Trip Planner

Search our weather history database for the weather conditions in past years. The results will help you decide how hot, cold, wet, or windy it might be!

Date:

Astronomy

May. 15, 2013 Rise Set
Actual Time 5:49 AM EDT 8:19 PM EDT
Civil Twilight 5:17 AM EDT 8:51 PM EDT
Nautical Twilight 4:38 AM EDT 9:30 PM EDT
Astronomical Twilight 3:54 AM EDT 10:14 PM EDT
Moon 10:23 AM EDT (5/15) 12:04 AM EDT (5/15)
Length of Visible Light 15h 33m
Length of Day
14h 30m
Waxing Crescent, 26% of the Moon is Illuminated
May 15
Waxing Crescent
May 18
First Quarter
May 25
Full
May 31
Last Quarter
Jun 8
New

Hourly Weather History & Observations

Time (EDT) Temp. Dew Point Humidity Pressure Visibility Wind Dir Wind Speed Gust Speed Precip Events Conditions
12:54 AM 50.0 °F 39.9 °F 68% 30.02 in 10.0 mi Calm Calm - N/A   Overcast
1:54 AM 50.0 °F 39.0 °F 66% 30.00 in 10.0 mi East 3.5 mph - N/A   Overcast
2:54 AM 50.0 °F 39.0 °F 66% 29.98 in 10.0 mi ENE 10.4 mph - N/A   Overcast
3:54 AM 50.0 °F 39.0 °F 66% 29.96 in 10.0 mi ENE 10.4 mph - N/A   Overcast
4:54 AM 50.0 °F 39.0 °F 66% 29.95 in 10.0 mi East 9.2 mph - N/A   Overcast
5:54 AM 48.9 °F 37.9 °F 66% 29.93 in 10.0 mi ENE 10.4 mph - N/A   Scattered Clouds
6:54 AM 51.1 °F 37.9 °F 61% 29.93 in 10.0 mi ENE 8.1 mph - N/A   Overcast
7:54 AM 51.1 °F 39.9 °F 66% 29.89 in 10.0 mi East 8.1 mph - 0.00 in Rain Light Rain
8:54 AM 54.0 °F 41.0 °F 62% 29.91 in 10.0 mi ENE 8.1 mph - 0.00 in   Partly Cloudy
9:54 AM 54.0 °F 43.0 °F 66% 29.87 in 10.0 mi Calm Calm - 0.00 in   Mostly Cloudy
10:54 AM 57.9 °F 45.0 °F 62% 29.83 in 10.0 mi ESE 10.4 mph 28.8 mph N/A   Partly Cloudy
11:54 AM 62.1 °F 46.9 °F 58% 29.84 in 10.0 mi Variable 6.9 mph - N/A   Partly Cloudy
12:54 PM 64.0 °F 48.0 °F 56% 29.79 in 10.0 mi SE 6.9 mph 17.3 mph N/A   Clear
1:54 PM 69.1 °F 51.1 °F 53% 29.73 in 10.0 mi South 6.9 mph 19.6 mph N/A   Clear
2:54 PM 70.0 °F 52.0 °F 53% 29.69 in 10.0 mi SSE 11.5 mph 21.9 mph N/A   Clear
3:54 PM 71.1 °F 53.1 °F 53% 29.67 in 10.0 mi Variable 4.6 mph 19.6 mph N/A   Clear
4:54 PM 73.0 °F 54.0 °F 51% 29.65 in 10.0 mi Variable 5.8 mph - N/A   Partly Cloudy
5:54 PM 73.0 °F 55.9 °F 55% 29.63 in 10.0 mi East 3.5 mph - N/A   Partly Cloudy
6:54 PM 73.9 °F 57.0 °F 55% 29.62 in 10.0 mi East 6.9 mph - N/A   Clear
7:54 PM 70.0 °F 57.0 °F 63% 29.65 in 10.0 mi East 4.6 mph - N/A   Scattered Clouds
8:54 PM 64.9 °F 57.9 °F 78% 29.69 in 10.0 mi SSE 3.5 mph - N/A   Mostly Cloudy
9:54 PM 61.0 °F 57.0 °F 87% 29.72 in 10.0 mi SSE 3.5 mph - N/A   Clear
10:54 PM 57.9 °F 55.0 °F 90% 29.73 in 10.0 mi Calm Calm - N/A   Clear
11:54 PM 59.0 °F 55.9 °F 90% 29.74 in 10.0 mi Calm Calm - N/A   Partly Cloudy